TJS-15 AKM, 63299

Orbit data source: Space-Track

TJS-15 AKM, 63299 is space debris in GEO originally from a launch on Sun, 09 Mar 2025 UTC launched from the Xichang Space Center, China (XSC). Debris objects in space refer to the collection of defunct objects orbiting the Earth. Examples of debris include non-operational satellites, rocket bodies, and fragments generated from explosions, collisions, or faulty payload assembly.

Loading next visibility...
Identifier
63299, 2025-045C
Orbit
GEO
Country
Flag of CNCN / PRC
Related business
Manufacturer
CAST
Mission
Defense Technology
Bus & Motor
Unknown
Mass
~500 kg wet, ~500 kg dry
Launch date (UTC)
2025-03-09 (11 months ago)
Launch vehicle
Unknown
Launch site
Xichang Space Center, China (XSC)
Object type
Payload
Rocket body
Debris
Shape & HBR
Box, 8.0 m
Radar Cross Section
1.500 m², Large (>1 m²)

Expand to show TLE details & history
Last TLE update: 16 hours ago

TLE from 16 hours ago
0 TJS-15 AKM
1 63299U 25045C   26033.91305054  .00000019  00000-0  00000+0 0  9995
2 63299   0.8713  86.9985 0016850  70.5649 202.4733  0.98871723  3285
Epoch: 2026-02-02T21:54Z
TLE epoch observation values (Epoch: 2026-02-02T21:54:47.566Z)
Latitude
-0.8961°
Longitude
-101.79937°
Altitude
36,249.716 km
Speed
3.056 km/s
True Right ascension
00h 00m 00s
True Declination
0° 53' 43"
Sunlit
Object was in daylight at epoch
Visualization orbit readout
Latitude
Unknown
Longitude
Unknown
Altitude
Unknown
Speed
Unknown
Apparent Right ascension
Unknown
Apparent Declination
Unknown
Sunlit
N/A
Visualization observer readout
Local Sidereal Time
16:08:14
Azimuth
Unknown
Elevation
Unknown
Doppler factor
Unknown
Orbital elements
Apogee altitude
36,256.486 km
Perigee altitude
36,113.049 km
Semi-major axis
42,562.905 km
Eccentricity
0.00169
Inclination
0.8713°
RAAN
86.9985°
Arg. of periapsis
70.5649°
True anomaly
202.39964°
Mean anomaly
202.4733°
Eccentric anomaly
202.43645°
Mean motion
0.24717 °/min
Orbital period
1,456.49 mins
BSTAR
0
Loading maneuver chart data...
Computing Atmospheric mass density...
Loading historical data...
Loading historical data...
Loading historical data...
Loading historical data...
Loading historical data...
Loading historical data...
Loading historical data...
Other satellites on launch #45 in the year 2025 (2025-03-09 UTC)

Documentation

Showing up to 5 results
|